Location: Newark
(44.3681°N, 100.3364°W)
Time: 16:49:08
(UTC+00:00)

Vanguard 2 Rocket - Visible Passes

Search period start: 21 February 2020 00:00
Search period end: 02 March 2020 00:00
Orbit: 554 x 3327 km, 32.9° (Epoch: 20 February)

Date Brightness Start Highest point End Pass type
(mag) Time Alt. Az. Time Alt. Az. Time Alt. Az.
21 Feb 9.2 02:24:58 10° SW 02:40:41 38° SSE 02:44:27 33° SE visible
21 Feb 9.6 04:41:42 10° WSW 04:50:17 33° SW 04:50:17 33° SW visible
22 Feb 9.6 01:23:50 10° SSW 01:39:47 34° SSE 01:48:25 19° ESE visible
22 Feb 9.0 03:39:33 10° WSW 03:54:15 46° S 03:54:15 46° S visible
22 Feb 10.3 05:57:31 10° W 06:00:03 16° WSW 06:00:03 16° WSW visible
23 Feb 10.0 00:23:22 10° SSW 00:38:46 29° SSE 00:50:50 10° E visible
23 Feb 9.0 02:37:35 10° SW 02:54:27 46° S 02:58:11 39° SE visible
23 Feb 9.6 04:55:13 10° WSW 05:03:59 33° SW 05:03:59 33° SW visible
24 Feb 9.5 01:36:00 10° SW 01:53:27 42° SSE 02:02:05 23° ESE visible
24 Feb 9.0 03:52:51 10° WSW 04:07:54 49° SSW 04:07:54 49° SSW visible
24 Feb 10.3 06:11:22 10° W 06:13:42 15° W 06:13:42 15° W visible
25 Feb 10.0 00:35:01 10° SSW 00:52:15 38° SSE 01:05:33 10° E visible
25 Feb 9.0 02:50:38 10° WSW 03:08:13 51° S 03:11:46 44° SE visible
25 Feb 9.7 05:08:53 10° W 05:17:35 32° WSW 05:17:35 32° WSW visible
26 Feb 9.4 01:48:44 10° SW 02:07:07 49° SSE 02:15:37 26° ESE visible
26 Feb 9.1 04:06:22 10° WSW 04:21:26 49° SSW 04:21:26 49° SSW visible
26 Feb 10.4 06:25:26 10° W 06:27:14 14° W 06:27:14 14° W visible
27 Feb 9.9 00:47:22 10° SW 01:05:47 45° SSE 01:19:27 11° E visible
27 Feb 9.0 03:03:59 10° WSW 03:21:56 53° S 03:25:15 47° SSE visible
27 Feb 9.8 05:22:42 10° W 05:31:03 29° WSW 05:31:03 29° WSW visible
28 Feb 9.3 02:01:52 10° WSW 02:20:47 54° S 02:29:03 29° ESE visible
28 Feb 9.2 04:20:03 10° W 04:34:51 46° SSW 04:34:51 46° SSW visible
28 Feb 10.5 06:39:51 10° W 06:40:40 11° W 06:40:40 11° W visible
29 Feb 9.8 01:00:13 10° SW 01:19:20 52° SSE 01:32:51 14° E visible
29 Feb 9.0 03:17:31 10° WSW 03:35:36 53° S 03:38:39 48° SSE visible
29 Feb 10.0 05:36:43 10° W 05:44:27 26° WSW 05:44:27 26° WSW visible
01 Mar 9.3 02:15:16 10° WSW 02:34:27 56° S 02:42:26 32° ESE visible
01 Mar 9.4 04:33:51 10° W 04:48:14 41° SW 04:48:14 41° SW visible
